Weather in Peno

Russia / Tver Oblast     56°55′26″N   32°44′26″E
temp.,
°C
wind,
m/s
gust,
m/s
humid.,
%
clouds,
%
prec.,
mm/h
press.,
hPa
HPBL,
m
20 april, tue
tue2000:00+6e4869100 0.0 1023633
03:00+5e3775100 0.0 1023618
06:00+4e3769100 0.0 1022601
09:00+3ese5863100 0.0 1022748
12:00+6ese4763100 0.0 10201081
15:00+7e4762100 0.0 10181322
18:00+7e4766100 0.0 10161095
21:00+4e4778100 0.1 10161030
21 april, wed
wed2100:00+3ene3691100 0.3 1014565
03:00+2nne2595100 0.3 1011604
06:00+2n3697100 0.6 1008401
09:00+1n2599100 4.1 1006243
12:00+2nw2399100 3.8 1004144
15:00+2w2699100 5.3 1004264
18:00+2w3998100 0.6 1005686
21:00+1s229899 0.6 100644
22 april, thu
thu2200:00+2s31096100 0.0 1006249
03:00+3ssw4139452 0.5 1007405
06:00+3ssw4109627 0.1 1007310
09:00+7ssw478638 0.1 1008479
12:00+11sw46686 0.2 10091079
15:00+13sw475639 1.0 10101800
18:00+11s376782 0.1 1010305
21:00+6sse399267 0.1 1012177
23 april, fri
fri2300:00+5s299665 0.3 1012194
03:00+4ssw2297100 0.3 101235
06:00+5sse31195100 0.0 1011295
09:00+9ssw4886100 0.1 10101072
12:00+8ssw368287 0.4 1012602
15:00+8s2384100 0.6 1010567
18:00+5wnw3495100 3.4 1010704
21:00+4ssw2597100 3.9 1010653
24 april, sat
sat2400:00+3sw2793100 0.6 1010414
03:00+2sw4894100 0.6 1009727
06:000ssw389845 0.0 1009269
09:00+4sw348490 0.1 1009706
12:00+3sw2397100 0.8 1009554
15:00+2wnw379588 2.6 1010447
18:00+4wnw367897 0.4 1010978
21:000sw22866 0.5 101115